Tracking 27112 objects as of 27-Mar-2023
HD Live streaming from Space Station
objects crossing your sky now

FREGAT R/B

Track FREGAT R/B now!


NORAD ID: 41551
Int'l Code: 2016-030C
Perigee: 23,509.6 km
Apogee: 23,624.4 km
Inclination: 55.5 °
Period: 859.2 minutes
Semi major axis: 29937 km
RCS: Unknown
Launch date: May 24, 2016
Source: Commonwealth of Independent States (former USSR) (CIS)
Launch site: FRENCH GUIANA (FRGUI)

Note: This is a ROCKET BODY
Your satellite tracking list
Your tracking list is empty




NASA's NSSDC Master Catalog

Two Line Element Set (TLE):
1 41551U 16030C   23083.93533899  .00000009  00000-0  00000-0 0  9990
2 41551  55.5319 256.4768 0019161 227.2405 132.5505  1.67597978 41841
Source of the keplerian elements: AFSPC